Weather in Concepcion del Uruguay

Argentina     32°28′49″S   58°14′21″W
temp.,
°C
wind,
m/s
gust,
m/s
humid.,
%
clouds,
%
prec.,
mm/h
press.,
hPa
HPBL,
m
13 april, tue
tue1300:00+14ene22750 0.0 102110
03:00+13ne11790 0.0 102110
06:00+12ene11810 0.0 102111
09:00+15ene22740 0.0 1023150
12:00+20e23570 0.0 1022754
15:00+23ene23500 0.0 10201142
18:00+20ese11640 0.0 101911
21:00+16ese34790 0.0 102045
14 april, wed
wed1400:00+14e35790 0.0 101971
03:00+13ene33820 0.0 101939
06:00+12e35890 0.0 101879
09:00+16ene47790 0.0 1019237
12:00+22ne46640 0.0 1018737
15:00+24ne45577 0.0 10141191
18:00+21ene226880 0.0 101421
21:00+20ese2273100 0.0 101428
15 april, thu
thu1500:00+19e3675100 0.0 1015159
03:00+18ene2383100 0.0 101452
06:00+19ne238299 0.0 101480
09:00+20ene12795 0.0 1015177
12:00+25ne11650 0.0 1015706
15:00+26nw1158100 0.0 10131291
18:00+24sw1169100 0.0 101311
21:00+21sse3377100 0.0 101334
16 april, fri
fri1600:00+19ese3389100 0.0 101436
03:00+18se229250 0.0 101315
06:00+18se12940 0.0 101411
09:00+20se33860 0.0 1015210
12:00+25se226912 0.0 1015850
15:00+27sse235827 0.1 10141453
18:00+24se34712 0.0 101449
21:00+20se36800 0.0 1016115
17 april, sat
sat1700:00+18ese37890 0.0 1016131
03:00+17ese36950 0.0 1016116
06:00+16ese35952 0.0 101792
09:00+18ese35870 0.0 1019234
12:00+24ese44670 0.0 1019841
15:00+25ese45500 0.0 10171027
18:00+21se35710 0.0 101785
21:00+18ese46795 0.0 101894